Location: Grand Mazuras
(45.9128°N, 1.7636°E)
Time: 03:11:49
(UTC+00:00)

Cosmos 1023 Rocket - Pass Details

Date: 18 April 2021
Orbit: 736 x 772 km, 74.1° (Epoch: 10 May)

Event Time Altitude Azimuth Distance (km) Brightness Sun altitude
Exits shadow 21:12:05 36° 197° (SSW) 1,154 5.1 -22.6°
Maximum altitude 21:14:12 87° 110° (ESE) 744 4.3 -22.8°
Drops below altitude 10° 21:19:18 10° 22° (NNE) 2,253 7.2 -23.4°
Sets 21:21:40 0° 22° (NNE) 3,183 8.1 -23.7°
